Location: Newark
(46.7636°N, 1.8358°W)
Time: 19:20:03
(UTC+00:00)

Vanguard 2 Rocket - Pass Details

Date: 19 October 2019
Orbit: 554 x 3326 km, 32.9° (Epoch: 17 November)

Event Time Altitude Azimuth Distance (km) Brightness Sun altitude
Rises 11:12:21 0° 249° (WSW) 6,989 11.5 32.6°
Reaches altitude 10° 11:16:59 10° 245° (WSW) 6,142 11.4 32.7°
Maximum altitude 11:35:59 52° 177° (S) 3,725 11.8 33.1°
Drops below altitude 10° 11:51:50 10° 108° (ESE) 5,211 11.1 33.3°
Sets 11:55:22 0° 104° (ESE) 5,911 11.2 33.3°
